Location: Bratislava
(48.1500°N, 17.1170°E)
Time: 01:42:16
(UTC+01:00)

N. Korean satellite - Pass Details

Date: 24 January 2019
Orbit: 457 x 510 km, 97.2° (Epoch: 18 February)

Event Time Altitude Azimuth Distance (km) Brightness Sun altitude
Rises 05:46:18 0° 18° (NNE) 2,621 10.4 -17.0°
Reaches altitude 10° 05:48:30 10° 26° (NNE) 1,724 9.5 -16.7°
Maximum altitude 05:52:02 42° 98° (E) 727 8.0 -16.1°
Drops below altitude 10° 05:55:30 10° 170° (S) 1,684 9.6 -15.5°
Sets 05:57:37 0° 178° (S) 2,551 10.4 -15.2°
